CW3442 Weather Reports


Display with metric or nautical units.
time (UTC)temp
F
wind
direction
speed
MPH
gust
MPH
rain 1hr
in
rain 24hr
in
rain mn
in
humidity
%
barometer
mb
20260906210604 73 264 0.0 0.0 0.00 0.00 0.00 46 1012.4
20260906203536 74 320 0.0 0.0 0.00 0.00 0.00 45 1012.5
20260906200531 73 290 0.0 0.0 0.00 0.00 0.00 47 1012.6
20260906193535 73 71 0.0 0.0 0.00 0.00 0.00 48 1012.9
20260906190531 73 72 0.0 0.0 0.00 0.00 0.00 51 1013.1
20260906183550 75 92 0.0 0.0 0.00 0.00 0.00 49 1013.3
20260906180530 72 269 0.0 0.0 0.00 0.00 0.00 54 1013.7
20260906173529 73 107 0.0 0.0 0.00 0.00 0.00 53 1013.8
20260906170540 72 105 0.0 0.0 0.00 0.00 0.00 58 1014.2
20260906163535 70 189 0.0 0.0 0.00 0.00 0.00 61 1014.4
20260906160535 72 90 0.0 0.0 0.00 0.00 0.00 58 1014.8
20260906153536 70 80 0.0 0.0 0.00 0.00 0.00 61 1014.8
20260906150530 69 80 0.0 0.0 0.00 0.00 0.00 66 1014.9
20260906143525 67 105 0.0 0.0 0.00 0.00 0.00 70 1015.2
20260906140528 65 86 0.0 0.0 0.00 0.00 0.00 72 1015.1
20260906133541 63 80 0.0 0.0 0.00 0.00 0.00 79 1015.0
20260906130530 60 14 0.0 0.0 0.00 0.00 0.00 89 1015.2
20260906123527 56 333 0.0 0.0 0.00 0.00 0.00 94 1015.4
20260906120528 55 334 0.0 0.0 0.00 0.00 0.00 95 1015.1
20260906113542 54 334 0.0 0.0 0.00 0.00 0.00 95 1014.8
20260906110542 53 334 0.0 0.0 0.00 0.00 0.00 95 1014.5
20260906103541 53 334 0.0 0.0 0.00 0.00 0.00 95 1014.3
20260906100530 53 334 0.0 0.0 0.00 0.00 0.00 94 1014.2
20260906093530 53 334 0.0 0.0 0.00 0.00 0.00 94 1013.9
20260906090541 54 334 0.0 0.0 0.00 0.00 0.00 94 1013.6
20260906083543 54 334 0.0 0.0 0.00 0.00 0.00 94 1013.5
20260906080540 55 334 0.0 0.0 0.00 0.00 0.00 94 1013.2
20260906073538 55 334 0.0 0.0 0.00 0.00 0.00 94 1013.3
20260906070531 56 334 0.0 0.0 0.00 0.00 0.00 94 1013.0
20260906063538 56 334 0.0 0.0 0.00 0.00 0.00 94 1012.9
20260906060529 56 334 0.0 0.0 0.00 0.00 0.00 94 1012.9
20260906053537 56 334 0.0 0.0 0.00 0.00 0.00 94 1013.1
20260906050529 56 334 0.0 0.0 0.00 0.00 0.00 93 1012.7
20260906043529 57 334 0.0 0.0 0.00 0.00 0.00 93 1012.9
20260906040533 57 334 0.0 0.0 0.00 0.00 0.00 93 1012.8
20260906033531 57 334 0.0 0.0 0.00 0.00 0.00 92 1012.7
20260906030541 58 334 0.0 0.0 0.00 0.00 0.00 92 1012.7
20260906023536 58 334 0.0 0.0 0.00 0.00 0.00 92 1012.8
20260906020528 59 314 0.0 0.0 0.00 0.00 0.00 91 1012.6
20260906013541 60 75 0.0 0.0 0.00 0.00 0.00 91 1012.5
20260906010540 60 75 0.0 0.0 0.00 0.00 0.00 89 1012.0
20260906003530 62 88 0.0 0.0 0.00 0.00 0.00 86 1011.9
20260906000544 64 355 0.0 0.0 0.00 0.00 0.00 81 1011.7
20260905233540 66 160 0.0 0.0 0.00 0.00 0.00 76 1011.6
20260905230537 66 173 0.0 0.0 0.00 0.00 0.00 76 1011.3
20260905223532 67 173 0.0 0.0 0.00 0.00 0.00 75 1011.0
20260905220533 67 240 0.0 0.0 0.00 0.00 0.00 73 1010.8
20260905213544 68 257 0.0 0.0 0.00 0.00 0.00 71 1010.6